#timestamp,LO_Frequency,Hit,StdDev 
1581715715.8,286047014.0,P
1581715735.6,286047013.5,P
1581715755.5,286047013.6,P
1581715775.3,286047013.4,Y
1581715795.1,286047001.2,P
1581715815.9,286046998.3,N
1581715835.7,286046996.5,N
1581715855.5,286046996.5,N
1581715875.4,286046999.0,N
1581715895.2,286046999.5,N
1581715915.1,286046997.2,N
1581715916.0,286046997.2,N
1581715935.8,286046996.6,N
1581715955.6,286046999.6,N
1581715975.5,286046997.1,N
1581715995.3,286046996.6,N
1581716015.1,286046997.8,N
1581716035.9,286046996.8,N
1581716055.7,286046996.8,N
1581716075.6,286046997.8,N
1581716095.4,286046995.2,N
1581716115.2,286046995.0,N
1581716135.1,286046994.9,N
1581716136.0,286046994.9,N
1581716155.8,286046996.1,N
1581716175.7,286046995.9,N
1581716195.5,286046996.2,N
1581716215.3,286046996.0,N
1581716235.2,286046994.0,N
1581716255.9,286046994.1,N
1581716275.7,286046994.0,N
1581716295.6,286046994.5,N
1581716315.4,286046996.0,N
1581716335.3,286046995.9,N
1581716355.1,286046994.0,Y
1581716356.0,286046994.0,P
1581716375.8,286046996.8,N
1581716395.7,286046997.4,N
1581716415.5,286046997.4,N
1581716435.3,286046997.7,N
1581716455.2,286046998.0,N
1581716475.0,286046995.3,Y
1581716475.9,286046995.3,P
1581716495.8,286046999.4,N
1581716515.6,286046999.5,N
1581716535.4,286046998.9,N
1581716555.3,286046998.7,N
1581716575.1,286046999.4,N
1581716595.8,286046998.4,N
1581716615.7,286046999.3,N
1581716635.5,286046996.5,N
1581716655.4,286046999.5,N
1581716675.2,286046999.0,N
1581716695.0,286046996.6,N
1581716695.9,286046996.6,N
1581716715.8,286046997.4,N
1581716735.6,286046997.9,N
1581716755.4,286046995.7,Y
1581716775.3,286046997.1,P
1581716795.1,286046997.6,P
1581716815.9,286046996.6,P
1581716835.7,286046996.5,Y
1581716855.5,286046998.2,P
1581716875.4,286046999.3,N
1581716895.2,286046996.9,P
1581716915.1,286046999.2,N
1581716916.0,286046999.2,N
1581716935.8,286046997.9,N
1581716955.6,286046997.6,N
1581716975.5,286046995.2,Y
1581716995.3,286046996.5,P
1581717015.2,286046996.7,P
1581717035.9,286046997.2,P
1581717055.7,286046997.1,Y
1581717075.6,286047001.2,P
1581717095.4,286047000.9,N
1581717115.2,286047000.4,N
1581717135.1,286047002.4,N
1581717136.0,286047002.4,N
1581717155.8,286047001.9,N
1581717175.7,286047000.0,N
1581717195.5,286047000.1,N
1581717215.3,286047002.7,N
1581717235.2,286047001.6,N
1581717255.0,286046999.7,N
1581717255.9,286046999.7,N
1581717275.7,286047001.7,N
1581717295.6,286047002.0,N
1581717315.4,286046999.9,N
1581717335.3,286047002.0,N
1581717355.1,286047003.6,N
1581717356.0,286047003.6,N
1581717375.8,286047003.9,N
1581717395.7,286047003.9,N
1581717415.5,286047005.9,Y
1581717435.4,286047003.5,P
1581717455.2,286047003.1,P
1581717475.0,286047003.0,P
1581717475.9,286047003.0,Y
1581717495.8,286046998.2,P
1581717515.6,286046998.7,N
1581717535.4,286046996.8,N
1581717555.3,286046997.3,N
1581717575.1,286046997.3,N
1581717595.9,286046997.3,N
